Weather History for Cape Girardeau, MO

Change the Weather History Date:

Thursday, November 21, 2013

  Actual Average Record
Temperature  
Mean Temperature 51 °F 44 °F  
Max Temperature 55 °F 55 °F 71 °F (1990)
Min Temperature 47 °F 34 °F 13 °F (1964)
Degree Days  
Heating Degree Days 14 21  
Month to date heating degree days 358 344  
Since 1 July heating degree days 625 647  
Cooling Degree Days 0 0  
Month to date cooling degree days 0 0  
Year to date cooling degree days 1441 1451  
Moisture  
Dew Point 49 °F    
Average Humidity 83    
Maximum Humidity 100    
Minimum Humidity 66    
Precipitation  
Precipitation 0.34 in 0.16 in 1.48 in (1979)
Month to date precipitation 1.65 3.03  
Year to date precipitation 34.52 41.15  
Sea Level Pressure  
Sea Level Pressure 30.17 in    
Wind  
Wind Speed 5 mph (SE)    
Max Wind Speed 17 mph    
Max Gust Speed 21 mph    
Visibility 5 miles    
Events Fog , Rain    
T = Trace of Precipitation, MM = Missing Value Source: NWS Daily Summary

Daily Weather History Graph

Daily Weather History Graph

Search for Another Location

Airport:

Trip Planner

Search our weather history database for the weather conditions in past years. The results will help you decide how hot, cold, wet, or windy it might be!

Date:

Astronomy

Nov. 21, 2013 Rise Set
Actual Time 6:43 AM CST 4:44 PM CST
Civil Twilight 6:15 AM CST 5:12 PM CST
Nautical Twilight 5:43 AM CST 5:44 PM CST
Astronomical Twilight 5:12 AM CST 6:15 PM CST
Moon 8:20 PM CST (11/21) 9:50 AM CST (11/21)
Length of Visible Light 10h 56m
Length of Day
10h 00m
Waning Gibbous, 85% of the Moon is Illuminated
Nov 21
Waning Gibbous
Nov 25
Last Quarter
Dec 2
New
Dec 9
First Quarter
Dec 17
Full

Hourly Weather History & Observations

Time (CST) Temp. Dew Point Humidity Pressure Visibility Wind Dir Wind Speed Gust Speed Precip Events Conditions
12:53 AM 46.9 °F 37.0 °F 68% 30.15 in 10.0 mi SSE 8.1 mph - N/A   Clear
1:53 AM 48.9 °F 37.0 °F 64% 30.14 in 10.0 mi SE 13.8 mph - N/A   Clear
2:53 AM 48.0 °F 37.9 °F 68% 30.14 in 10.0 mi SSE 9.2 mph - N/A   Partly Cloudy
3:53 AM 50.0 °F 39.0 °F 66% 30.13 in 10.0 mi SSE 9.2 mph - N/A   Mostly Cloudy
4:53 AM 50.0 °F 39.9 °F 68% 30.13 in 10.0 mi SSE 12.7 mph - N/A   Mostly Cloudy
5:53 AM 50.0 °F 41.0 °F 71% 30.17 in 10.0 mi South 3.5 mph - N/A   Overcast
6:53 AM 50.0 °F 42.1 °F 74% 30.19 in 10.0 mi Calm Calm - N/A   Overcast
7:53 AM 50.0 °F 43.0 °F 77% 30.21 in 10.0 mi SE 3.5 mph - N/A   Overcast
8:53 AM 51.1 °F 44.1 °F 77% 30.20 in 10.0 mi SE 6.9 mph - N/A   Overcast
9:53 AM 52.0 °F 45.0 °F 77% 30.21 in 10.0 mi South 4.6 mph - N/A   Overcast
10:53 AM 53.1 °F 48.0 °F 83% 30.19 in 8.0 mi South 4.6 mph - 0.01 in Rain Light Rain
11:33 AM 51.1 °F 48.9 °F 92% 30.18 in 2.0 mi SE 4.6 mph - N/A Rain Rain
11:53 AM 51.1 °F 48.9 °F 92% 30.18 in 5.0 mi SSE 4.6 mph - N/A Rain Light Rain
12:53 PM 53.1 °F 50.0 °F 89% 30.16 in 4.0 mi SSE 3.5 mph - N/A Rain Light Rain
1:53 PM 53.1 °F 51.1 °F 93% 30.16 in 2.5 mi North 3.5 mph - 0.01 in Rain Light Rain
2:13 PM 52.0 °F 50.0 °F 93% 30.16 in 2.5 mi North 4.6 mph - 0.01 in Rain Light Rain
2:33 PM 52.0 °F 51.1 °F 97% 30.16 in 3.0 mi NNE 4.6 mph - 0.02 in Rain Light Rain
2:43 PM 52.0 °F 51.1 °F 97% 30.15 in 2.0 mi ENE 5.8 mph - 0.02 in Rain Rain
2:53 PM 52.0 °F 51.1 °F 97% 30.16 in 2.0 mi East 6.9 mph - 0.03 in Rain Rain
3:23 PM 52.0 °F 51.1 °F 97% 30.16 in 1.8 mi ESE 4.6 mph - 0.02 in Rain Rain
3:38 PM 52.0 °F 51.1 °F 97% 30.18 in 1.2 mi North 3.5 mph - 0.08 in Rain Heavy Rain
3:53 PM 52.0 °F 51.1 °F 97% 30.17 in 1.0 mi ESE 5.8 mph - 0.20 in Rain Heavy Rain
4:09 PM 52.0 °F 51.1 °F 97% 30.13 in 1.5 mi SE 15.0 mph - 0.02 in Rain Rain
4:17 PM 52.0 °F 51.1 °F 97% 30.14 in 3.0 mi SE 10.4 mph - 0.02 in Rain Light Rain
4:53 PM 53.1 °F 51.1 °F 93% 30.15 in 6.0 mi SE 5.8 mph - 0.02 in   Overcast
5:53 PM 53.1 °F 52.0 °F 96% 30.15 in 5.0 mi SE 5.8 mph - 0.00 in Rain Light Rain
6:07 PM 53.1 °F 52.0 °F 96% 30.15 in 5.0 mi SE 5.8 mph - 0.00 in Rain Light Rain
6:53 PM 54.0 °F 52.0 °F 93% 30.17 in 6.0 mi SSE 5.8 mph - 0.00 in   Overcast
7:53 PM 54.0 °F 53.1 °F 97% 30.16 in 6.0 mi SSE 4.6 mph - N/A   Overcast
8:53 PM 54.0 °F 53.1 °F 97% 30.17 in 6.0 mi Calm Calm - N/A   Overcast
9:53 PM 55.0 °F 53.1 °F 93% 30.17 in 4.0 mi Calm Calm - N/A   Overcast
10:08 PM 54.0 °F 53.1 °F 97% 30.18 in 3.0 mi Calm Calm - N/A   Overcast
10:16 PM 54.0 °F 53.1 °F 97% 30.17 in 2.0 mi Calm Calm - N/A   Overcast
10:21 PM 54.0 °F 53.1 °F 97% 30.17 in 1.5 mi Calm Calm - N/A   Overcast
10:53 PM 53.1 °F 52.0 °F 96% 30.17 in 1.0 mi Calm Calm - N/A   Overcast
11:09 PM 53.1 °F 52.0 °F 96% 30.17 in 0.8 mi NW 3.5 mph - N/A   Overcast
11:16 PM 53.1 °F 52.0 °F 96% 30.17 in 0.5 mi NNW 3.5 mph - N/A Fog Fog
11:37 PM 54.0 °F 53.1 °F 97% 30.17 in 0.5 mi Calm Calm - N/A Fog Fog
11:53 PM 54.0 °F 53.1 °F 97% 30.17 in 0.5 mi Calm Calm - N/A Fog Fog